Notices

What's New in latest Release from April 7th, 2021:

- Updated Glossary, including Speed of Maximum Gust, and Total Hourly Precipitation

- Updated national and regional climate services offices contacts and prices information

- Addition of station inventory lists for 1981-2010, 1971-2000, and 1961-1990 Normals.

If you haven't already, please take our survey and provide feedback about our website: https://eccc.sondage-survey.ca/f/LanguageSelection.aspx?s=442ca660-fcf1-47c0-95a9-59707d6fd709

Hourly Data Report for August 21, 2017

TORONTO CITY
ONTARIO

43°40'00.000" N
79°24'00.000" W
112.50 m
6158355
71508
XTO

Download Data

Hourly Data (August 2017)
Hourly Data Report for August 21, 2017
TIME
LST
Temp Definition
°C
Dew Point Definition
°C
Rel Hum Definition
%
Precip. Amount Definition
mm

Wind Dir Definition
10's deg

Wind Spd Definition
km/h
Visibility Definition
km
Stn Press Definition
kPa
Hmdx Definition


Wind Chill Definition


Weather Definition


00:00 20.6 15.7 74 0.0 LegendMM LegendMM   100.55 25   LegendNANA
01:00 20.4 15.2 72 0.0 LegendMM LegendMM   100.56     LegendNANA
02:00 20.6 16.1 75 0.0 LegendMM LegendMM   100.57 25   LegendNANA
03:00 19.8 15.6 77 0.0 LegendMM LegendMM   100.55     LegendNANA
04:00 19.6 16.0 80 0.0 LegendMM LegendMM   100.54     LegendNANA
05:00 19.1 14.6 75 0.0 LegendMM LegendMM   100.54     LegendNANA
06:00 19.0 14.4 74 0.0 LegendMM LegendMM   100.50     LegendNANA
07:00 21.6 15.1 67 0.0 LegendMM LegendMM   100.61 26   LegendNANA
08:00 23.0 16.0 65 0.0 LegendMM LegendMM   100.59 28   LegendNANA
09:00 23.6 16.2 63 0.0 LegendMM LegendMM   100.54 28   LegendNANA
10:00 25.4 16.4 58 0.0 LegendMM LegendMM   100.55 30   LegendNANA
11:00 26.0 17.3 59 0.0 LegendMM LegendMM   100.55 31   LegendNANA
12:00 27.4 18.3 58 0.0 LegendMM LegendMM   100.51 34   LegendNANA
13:00 27.7 17.8 55 0.0 LegendMM LegendMM   100.46 34   LegendNANA
14:00 26.9 17.8 58 0.0 LegendMM LegendMM   100.39 33   LegendNANA
15:00 28.5 17.6 52 0.0 LegendMM LegendMM   100.37 34   LegendNANA
16:00 28.0 17.7 53 0.0 LegendMM LegendMM   100.33 34   LegendNANA
17:00 27.8 19.3 60 0.0 LegendMM LegendMM   100.30 35   LegendNANA
18:00 27.1 19.4 63 0.0 LegendMM LegendMM   100.29 34   LegendNANA
19:00 26.2 18.8 64 0.0 LegendMM LegendMM   100.26 33   LegendNANA
20:00 25.4 18.1 64 0.0 LegendMM LegendMM   100.26 31   LegendNANA
21:00 24.4 18.0 67 0.0 LegendMM LegendMM   100.24 30   LegendNANA
22:00 23.1 18.4 75 0.0 LegendMM LegendMM   100.21 29   LegendNANA
23:00 22.7 18.4 77 0.0 LegendMM LegendMM   100.16 29   LegendNANA

Notes on Data Quality.

Legend

  • E = Estimated
  • M = Missing
  • NA = Not Available*
  • [empty] = Indicates an unobserved value
Date modified: